Location: Lane
(33.5226°N, 79.8788°W)
Time: 18:32:54
(UTC+00:00)

Transit 2A - Pass Details

Date: 02 October 2022
Orbit: 598 x 959 km, 66.7° (Epoch: 02 December)

Event Time Altitude Azimuth Distance (km) Brightness Sun altitude
Rises 02:42:26 0° 160° (SSE) 2,999 - -44.6°
Reaches altitude 10° 02:46:05 10° 132° (SE) 2,024 - -45.2°
Maximum altitude 02:47:58 12° 107° (ESE) 1,837 - -45.5°
Drops below altitude 10° 02:49:50 10° 81° (E) 1,976 - -45.8°
Sets 02:53:16 0° 52° (NE) 2,854 - -46.4°
